TimeMDT,TemperatureF,Dew PointF,Humidity,Sea Level PressureIn,VisibilityMPH,Wind Direction,Wind SpeedMPH,Gust SpeedMPH,PrecipitationIn,Events,Conditions,WindDirDegrees,DateUTC
12:53 AM,33.1,1.0,26,30.01,10.0,Calm,Calm,-,N/A,,Clear,0,2012-10-08 06:53:00
1:53 AM,32.0,1.0,27,30.02,10.0,Calm,Calm,-,N/A,,Clear,0,2012-10-08 07:53:00
2:53 AM,30.9,1.0,28,30.01,10.0,Calm,Calm,-,N/A,,Clear,0,2012-10-08 08:53:00
3:53 AM,30.0,1.0,29,30.01,10.0,Calm,Calm,-,N/A,,Clear,0,2012-10-08 09:53:00
4:53 AM,27.0,1.0,33,30.03,10.0,North,-9999.0,-,N/A,,Clear,0,2012-10-08 10:53:00
5:53 AM,28.0,1.0,31,30.04,10.0,Calm,Calm,-,N/A,,Clear,0,2012-10-08 11:53:00
7:53 AM,28.0,1.9,33,30.12,10.0,Calm,Calm,-,N/A,,Clear,0,2012-10-08 13:53:00
8:53 AM,39.0,3.0,22,30.12,10.0,Calm,Calm,-,N/A,,Clear,0,2012-10-08 14:53:00
9:53 AM,50.0,3.0,15,30.06,10.0,Calm,Calm,-,N/A,,Clear,0,2012-10-08 15:53:00
10:53 AM,60.1,3.9,11,30.03,10.0,South,6.9,-,N/A,,Clear,190,2012-10-08 16:53:00
11:53 AM,66.9,14.0,13,29.96,10.0,Variable,4.6,-,N/A,,Clear,0,2012-10-08 17:53:00
12:53 PM,69.1,16.0,13,29.97,10.0,West,12.7,18.4,N/A,,Clear,270,2012-10-08 18:53:00
1:53 PM,69.1,18.0,14,29.94,10.0,WSW,12.7,23.0,N/A,,Clear,250,2012-10-08 19:53:00
2:53 PM,71.1,23.0,16,29.93,10.0,West,10.4,20.7,N/A,,Clear,270,2012-10-08 20:53:00
3:53 PM,71.1,21.0,15,29.91,10.0,West,15.0,19.6,N/A,,Clear,260,2012-10-08 21:53:00
4:53 PM,70.0,21.0,16,29.93,10.0,West,16.1,19.6,N/A,,Clear,260,2012-10-08 22:53:00
5:53 PM,68.0,19.0,15,29.94,10.0,West,12.7,20.7,N/A,,Clear,280,2012-10-08 23:53:00
6:53 PM,64.0,21.9,20,29.96,10.0,WNW,5.8,-,N/A,,Clear,290,2012-10-09 00:53:00
7:53 PM,59.0,21.9,24,29.99,10.0,Calm,Calm,-,N/A,,Clear,0,2012-10-09 01:53:00
8:53 PM,51.1,21.0,31,29.99,10.0,Calm,Calm,-,N/A,,Clear,0,2012-10-09 02:53:00
9:53 PM,45.0,19.0,36,29.99,10.0,Calm,Calm,-,N/A,,Clear,0,2012-10-09 03:53:00
10:53 PM,42.1,19.0,40,29.97,10.0,Calm,Calm,-,N/A,,Clear,0,2012-10-09 04:53:00
11:53 PM,39.9,18.0,41,29.94,10.0,Calm,Calm,-,N/A,,Clear,0,2012-10-09 05:53:00